TimeCDT,TemperatureF,Dew PointF,Humidity,Sea Level PressureIn,VisibilityMPH,Wind Direction,Wind SpeedMPH,Gust SpeedMPH,PrecipitationIn,Events,Conditions,WindDirDegrees,DateUTC
12:53 AM,63.0,54.0,72,29.66,10.0,South,12.7,-,N/A,,Overcast,170,2013-03-22 05:53:00
1:53 AM,63.0,55.0,75,29.66,10.0,South,11.5,-,N/A,,Overcast,170,2013-03-22 06:53:00
2:53 AM,63.0,55.9,78,29.66,10.0,South,10.4,-,N/A,,Overcast,190,2013-03-22 07:53:00
3:53 AM,63.0,57.0,81,29.65,10.0,South,11.5,-,N/A,,Overcast,180,2013-03-22 08:53:00
4:53 AM,63.0,57.0,81,29.65,10.0,SSE,5.8,-,N/A,,Overcast,150,2013-03-22 09:53:00
5:53 AM,63.0,57.9,84,29.65,10.0,SSE,8.1,-,N/A,,Overcast,160,2013-03-22 10:53:00
6:53 AM,64.0,59.0,84,29.67,10.0,SSE,8.1,-,N/A,,Overcast,150,2013-03-22 11:53:00
7:53 AM,64.0,59.0,84,29.69,10.0,SSE,9.2,-,N/A,,Overcast,150,2013-03-22 12:53:00
8:53 AM,64.0,59.0,84,29.71,10.0,SSE,6.9,-,N/A,,Overcast,150,2013-03-22 13:53:00
9:26 AM,64.4,59.0,83,29.74,10.0,SSE,6.9,-,N/A,,Overcast,150,2013-03-22 14:26:00
9:36 AM,64.4,59.0,83,29.74,10.0,SE,3.5,-,N/A,,Overcast,140,2013-03-22 14:36:00
9:53 AM,64.9,60.1,84,29.73,10.0,SE,8.1,-,N/A,,Overcast,140,2013-03-22 14:53:00
10:53 AM,57.0,50.0,77,29.75,10.0,ENE,10.4,-,0.00,,Overcast,60,2013-03-22 15:53:00
11:27 AM,60.8,51.8,72,29.75,10.0,East,9.2,-,N/A,,Overcast,80,2013-03-22 16:27:00
11:44 AM,62.6,51.8,68,29.75,10.0,East,8.1,-,N/A,,Overcast,90,2013-03-22 16:44:00
11:53 AM,64.0,53.1,67,29.74,10.0,East,6.9,-,N/A,,Overcast,80,2013-03-22 16:53:00
12:53 PM,73.0,59.0,61,29.71,10.0,ESE,6.9,-,N/A,,Mostly Cloudy,120,2013-03-22 17:53:00
1:53 PM,75.9,60.1,58,29.69,10.0,South,9.2,-,N/A,,Overcast,180,2013-03-22 18:53:00
2:53 PM,77.0,60.1,56,29.66,10.0,WSW,8.1,-,N/A,,Overcast,240,2013-03-22 19:53:00
3:53 PM,73.0,55.9,55,29.66,10.0,North,13.8,-,0.00,,Mostly Cloudy,360,2013-03-22 20:53:00
4:00 PM,73.4,57.2,57,29.68,10.0,North,11.5,-,N/A,,Overcast,350,2013-03-22 21:00:00
4:53 PM,66.9,53.1,61,29.71,10.0,NNW,18.4,-,0.00,Rain,Light Rain,330,2013-03-22 21:53:00
5:53 PM,57.9,50.0,75,29.73,7.0,North,13.8,-,0.00,,Mostly Cloudy,10,2013-03-22 22:53:00
6:15 PM,55.4,48.2,77,29.76,6.0,North,11.5,-,N/A,,Haze,10,2013-03-22 23:15:00
6:53 PM,54.0,48.0,80,29.75,6.0,North,12.7,-,N/A,,Haze,360,2013-03-22 23:53:00
7:14 PM,53.6,48.2,82,29.77,6.0,North,12.7,-,N/A,,Haze,360,2013-03-23 00:14:00
7:53 PM,52.0,48.0,86,29.78,7.0,North,12.7,-,N/A,,Overcast,360,2013-03-23 00:53:00
8:43 PM,51.8,46.4,82,29.81,7.0,North,6.9,-,N/A,,Overcast,10,2013-03-23 01:43:00
8:53 PM,50.0,46.9,89,29.80,7.0,NNE,10.4,-,N/A,,Overcast,20,2013-03-23 01:53:00
9:53 PM,48.9,46.0,90,29.81,6.0,NNE,6.9,-,N/A,,Overcast,30,2013-03-23 02:53:00
10:53 PM,48.9,46.0,90,29.83,5.0,NNE,5.8,-,N/A,,Overcast,20,2013-03-23 03:53:00
11:53 PM,48.9,46.0,90,29.83,6.0,NE,6.9,-,N/A,,Overcast,40,2013-03-23 04:53:00